STARLINK-32536

Last updated on Thu Nov 21 2024 00:02:06 GMT+0000 (Coordinated Universal Time)

1 61925U 24207P 24325.58335648 -.00823188 21097-3 -24498-2 0 9999 2 61925 43.0024 96.5291 0001840 274.9799 143.6122 15.91497334 2603
UTC large
Height (km)
Speed (km/s)
/
Latitude / Longitude
Inclination (degrees)
Orbital Period (minutes)
Azimuth
Elevation
Range (km)
Doppler Factor

Next 0 passes for location: London (51.5072 / 0.1276)

Sorry there are no passes over London.